Wind_Speed
9 9 8 8 8 8 9 9 9 9 8 8 8 8 8 8 8 7 7 7 8 8 8 8 8 8 8 8 8 8 8 8 8 8 7 7 7 7 6 6 7 6 6 6
10 10 10 10 9 9 9 9 10 9 9 9 9 8 8 8 8 7 7 7 7 8 8 8 8 8 8 8 8 8 8 7 7 7 7 7 7 6 6 6 6 6 7 7
11 11 11 11 11 11 10 10 10 10 9 10 10 9 9 8 8 8 8 7 7 8 8 8 9 9 9 8 8 8 8 7 6 7 7 7 6 6 6 6 6 5 6 6
12 12 12 12 12 12 11 11 11 11 10 11 11 11 9 10 9 9 8 8 8 8 8 9 9 9 9 9 8 8 7 6 6 6 7 6 6 6 6 6 6 6 6 6
13 12 13 13 13 13 13 12 12 12 11 12 11 12 11 11 10 9 9 9 8 8 9 9 9 9 9 9 9 8 7 7 7 7 7 7 6 6 5 5 6 6 6 6
14 13 13 13 13 13 14 14 13 13 13 13 12 12 11 11 10 10 10 10 9 9 10 10 10 10 9 9 9 9 8 8 8 7 7 7 6 6 6 6 6 6 6 6
14 14 14 14 14 14 14 14 14 14 14 14 13 13 13 12 11 11 11 11 10 10 10 10 10 10 10 10 10 9 9 8 8 8 8 7 7 6 6 6 6 6 6 7
15 15 15 14 14 15 14 14 14 15 15 15 15 15 14 13 12 12 12 12 11 11 11 11 11 11 11 11 11 10 10 9 9 9 9 8 8 7 7 7 7 7 7 7
15 15 15 15 15 15 15 15 15 16 16 16 16 16 16 15 13 12 12 12 12 12 12 12 12 12 12 11 11 11 11 10 10 10 10 9 9 8 8 8 8 7 8 8
15 16 16 16 16 16 16 16 16 16 16 17 17 17 16 15 14 14 14 14 13 13 13 13 13 13 13 12 12 12 12 12 11 11 10 10 10 9 8 9 8 8 8 8
15 16 17 17 17 16 17 17 17 17 18 18 18 18 17 15 15 15 15 15 15 15 14 14 14 14 14 14 13 12 12 12 12 12 12 12 11 10 10 9 9 9 9 9
17 17 17 18 18 17 18 18 18 19 19 19 19 20 18 17 17 17 17 17 17 16 16 16 15 15 15 15 14 14 14 13 13 13 13 12 11 11 11 11 10 10 10 10
18 18 18 18 19 19 19 19 20 20 21 21 20 21 19 19 18 18 18 18 18 18 17 17 17 16 16 16 15 15 15 15 14 14 14 14 13 13 12 12 12 11 11 11
19 19 19 19 20 20 20 20 21 22 22 22 22 22 21 20 19 19 19 19 19 19 18 17 17 17 17 17 17 16 16 16 16 15 15 15 15 14 13 13 13 13 13 12
20 20 20 20 21 22 22 21 22 23 23 23 23 23 22 20 19 19 19 19 19 19 18 18 18 18 18 18 18 18 18 18 17 17 16 16 16 15 14 14 14 14 14 13
22 22 21 21 22 22 22 22 22 23 24 24 24 23 22 22 22 20 20 20 20 20 19 19 19 19 19 19 19 19 19 19 19 18 18 18 17 16 16 15 15 15 14 14
22 22 23 22 23 23 23 22 23 24 24 24 25 24 23 22 23 22 21 21 21 21 20 20 20 20 19 19 20 21 20 20 20 20 19 19 19 18 18 17 16 16 16 16
22 23 23 23 24 25 24 23 23 24 24 25 25 24 24 23 23 23 23 23 23 22 22 22 21 21 21 21 21 21 22 21 22 21 20 20 20 20 19 19 18 18 17 17
23 23 23 23 24 25 25 24 24 25 25 25 25 25 24 23 23 24 24 24 24 24 24 24 23 22 22 22 23 23 23 23 22 22 22 22 22 21 20 20 19 19 19 18
23 23 24 24 24 25 24 25 24 25 26 25 25 25 24 23 24 24 24 24 24 25 25 24 24 24 23 23 23 23 24 23 23 23 23 23 23 22 21 21 21 21 21 20
23 23 24 25 25 25 24 25 24 25 25 25 25 25 25 25 25 25 25 25 25 25 26 25 25 25 24 24 24 24 25 24 23 23 23 23 23 24 23 23 23 23 23 23
23 24 24 25 25 25 25 25 25 25 24 25 25 25 25 24 25 25 25 25 25 25 26 25 25 25 25 25 25 25 25 26 25 24 24 24 25 26 26 25 25 25 24 24
23 24 24 24 25 26 26 25 25 24 24 24 25 25 25 25 25 25 26 25 25 25 25 25 25 25 25 25 25 25 26 27 27 26 26 26 26 25 26 26 26 26 26 26
23 24 24 25 26 27 27 26 25 25 25 25 26 26 26 25 25 25 25 26 25 25 25 25 26 26 25 26 26 26 26 26 27 27 27 28 28 27 26 27 27 27 26 26
23 24 25 26 26 27 26 26 26 26 26 26 26 26 26 26 26 26 26 27 27 27 27 27 26 26 26 26 26 26 26 26 27 27 28 28 28 28 28 28 28 28 27 27
22 24 25 26 26 27 25 25 26 26 26 27 26 26 27 27 27 27 28 28 29 28 28 28 28 27 27 26 26 25 25 26 26 27 27 28 28 28 28 29 28 28 28 28
Wind_Direction
274 272 271 269 267 264 263 266 271 275 278 278 278 279 282 284 283 277 276 278 279 283 289 292 291 291 291 291 293 293 292 289 288 290 293 294 293 287 281 276 272 268 269 271
272 270 266 264 264 266 267 269 271 271 275 276 276 277 277 281 287 286 280 279 279 279 287 289 289 291 291 291 295 297 295 292 292 292 295 295 294 289 283 277 275 270 267 267
270 268 265 262 263 266 268 270 270 272 276 278 278 276 276 280 282 281 279 277 277 279 286 289 289 291 291 290 295 296 295 291 291 290 293 293 293 292 290 281 278 281 277 268
268 268 268 264 264 264 266 268 272 274 275 276 276 276 275 279 280 279 277 274 274 277 283 286 289 290 289 288 290 293 289 286 291 292 292 295 295 294 288 283 280 281 281 274
269 268 268 266 264 264 263 266 270 273 273 274 274 273 275 276 276 276 272 270 273 276 282 284 287 288 286 285 285 287 287 285 290 290 287 291 296 295 290 283 282 280 276 271
268 268 267 268 265 264 265 267 269 270 270 269 271 272 274 276 274 273 270 269 271 275 279 282 284 285 284 282 282 281 283 283 284 285 285 288 292 292 288 281 279 278 276 273
269 269 269 269 268 266 265 267 268 268 267 267 268 268 271 272 273 271 268 268 269 272 275 278 279 281 282 282 280 279 279 278 278 280 282 285 290 291 286 279 275 276 277 274
269 270 269 268 267 266 263 263 263 265 266 268 268 267 269 268 267 267 265 265 266 270 273 277 279 282 282 281 279 277 276 274 274 274 275 278 282 288 288 281 275 275 276 278
267 269 269 267 265 263 262 262 264 264 265 267 269 268 269 267 265 264 264 265 266 269 273 276 278 279 278 278 277 277 274 273 275 274 274 276 278 283 287 281 274 274 276 278
266 267 268 268 266 262 261 262 262 264 267 269 270 270 271 268 262 261 262 263 267 270 273 275 276 276 275 276 274 276 274 272 274 276 276 278 276 278 282 282 276 274 276 277
267 270 269 267 266 264 261 260 261 264 265 267 271 272 271 268 263 262 262 263 264 266 269 271 273 273 273 273 270 272 273 271 271 272 274 275 275 275 276 276 273 275 276 272
267 269 270 269 267 265 263 261 261 263 265 267 268 270 271 268 266 264 263 263 263 264 265 268 269 271 272 271 269 270 270 270 271 271 272 273 273 272 271 271 270 274 274 272
266 267 268 269 268 266 264 262 262 263 265 265 267 269 269 268 266 265 262 262 263 264 265 265 266 268 269 268 268 268 267 268 269 270 272 270 271 271 269 267 267 269 271 273
267 267 267 268 268 268 265 264 264 264 265 266 267 267 267 267 266 265 261 260 261 263 264 264 264 266 266 266 265 266 267 267 269 269 270 270 270 270 267 266 267 267 269 270
265 268 269 269 267 266 266 265 263 262 264 266 267 266 264 264 266 265 261 260 258 259 261 263 263 265 265 265 264 265 264 266 268 267 267 267 268 268 266 266 267 267 266 266
266 268 268 268 268 267 266 265 264 264 264 264 266 267 265 263 263 263 261 260 259 259 260 262 262 265 266 265 264 264 263 264 265 266 266 264 263 264 265 266 266 266 265 266
266 268 269 269 267 268 267 266 265 265 265 264 265 267 266 264 263 263 262 262 259 258 259 261 261 262 264 265 264 263 263 263 264 265 264 262 261 261 262 263 264 264 264 265
265 266 268 269 267 267 269 268 267 266 265 265 266 266 265 263 261 260 260 261 260 258 258 260 262 263 263 263 264 263 263 263 264 263 262 260 259 259 262 262 262 262 263 262
266 266 268 268 269 269 269 269 269 268 267 267 268 266 263 262 260 259 259 261 262 259 258 259 261 263 264 264 263 264 263 263 262 262 261 260 258 259 260 262 263 262 262 262
266 268 268 268 268 270 270 269 268 268 267 267 268 265 262 259 259 259 260 262 261 259 259 259 261 263 264 265 264 264 264 263 261 261 260 259 259 259 260 262 262 262 262 262
268 269 268 268 269 270 272 271 269 268 268 266 266 264 262 260 259 259 259 260 260 259 259 260 261 263 263 265 265 265 264 264 261 260 260 258 259 259 260 261 260 261 262 263
270 271 270 268 270 273 272 272 271 268 266 265 263 262 261 261 259 258 258 259 260 259 259 260 261 262 262 263 263 263 263 262 262 260 259 259 259 259 260 261 260 261 261 263
270 271 270 269 271 273 272 272 271 268 266 264 262 262 264 263 260 260 259 259 259 259 259 260 261 261 261 262 262 262 263 263 263 263 261 261 262 262 260 260 262 262 262 263
272 272 272 271 272 272 274 274 273 271 268 265 265 265 266 264 262 261 259 258 259 260 260 260 261 262 262 262 263 263 263 264 264 264 263 262 263 261 260 260 262 262 263 265
274 273 272 272 273 273 273 273 272 271 268 267 267 267 266 265 264 261 259 259 260 261 260 259 260 261 261 261 263 264 265 265 264 264 264 264 264 262 262 262 263 263 265 267
274 274 274 275 275 274 274 273 272 271 269 267 267 266 266 265 263 261 260 260 260 260 259 259 259 260 260 260 261 263 264 264 265 264 265 265 265 264 264 263 263 264 265 266
Height
5867 5868 5867 5867 5867 5868 5867 5867 5867 5867 5867 5867 5866 5866 5866 5864 5864 5864 5863 5863 5862 5862 5861 5860 5860 5859 5858 5857 5856 5855 5854 5853 5852 5851 5850 5849 5849 5848 5847 5846 5846 5845 5845 5844
5865 5865 5865 5864 5865 5865 5865 5865 5865 5865 5864 5864 5864 5864 5863 5863 5862 5862 5861 5861 5860 5860 5859 5858 5858 5857 5856 5855 5854 5853 5852 5851 5850 5849 5849 5848 5847 5846 5845 5845 5844 5844 5843 5843
5862 5863 5861 5862 5862 5862 5862 5863 5862 5862 5862 5862 5862 5862 5861 5861 5860 5860 5859 5859 5858 5858 5857 5856 5856 5855 5854 5853 5852 5851 5850 5849 5848 5848 5847 5846 5845 5844 5844 5843 5843 5842 5841 5841
5858 5859 5858 5858 5859 5859 5859 5859 5859 5859 5860 5860 5860 5859 5859 5858 5858 5857 5857 5856 5856 5856 5855 5854 5854 5853 5852 5851 5850 5850 5848 5848 5847 5846 5845 5845 5844 5843 5842 5841 5841 5840 5840 5839
5855 5855 5855 5855 5855 5855 5856 5856 5856 5856 5856 5857 5856 5856 5857 5856 5855 5855 5854 5854 5854 5853 5853 5852 5852 5851 5850 5849 5848 5848 5847 5846 5845 5845 5844 5843 5842 5841 5841 5840 5839 5839 5838 5838
5851 5851 5851 5851 5851 5851 5852 5853 5853 5853 5853 5854 5854 5854 5854 5853 5852 5852 5852 5851 5851 5851 5850 5850 5849 5849 5848 5847 5846 5846 5845 5844 5844 5843 5842 5842 5841 5840 5839 5838 5838 5837 5837 5836
5847 5847 5847 5847 5847 5848 5848 5849 5850 5849 5849 5850 5850 5850 5851 5849 5849 5849 5849 5848 5848 5848 5847 5847 5846 5846 5845 5845 5844 5843 5843 5842 5842 5841 5841 5840 5839 5838 5837 5837 5836 5835 5835 5834
5843 5843 5843 5843 5843 5844 5844 5845 5846 5846 5846 5846 5845 5845 5847 5846 5845 5845 5845 5845 5845 5845 5844 5844 5843 5843 5842 5842 5841 5841 5841 5840 5840 5839 5839 5838 5837 5836 5835 5835 5834 5834 5833 5832
5839 5839 5839 5839 5839 5839 5840 5840 5841 5841 5841 5841 5841 5841 5841 5841 5841 5841 5841 5841 5841 5841 5841 5841 5840 5840 5840 5839 5839 5838 5838 5838 5837 5837 5836 5836 5835 5834 5833 5833 5832 5832 5831 5831
5834 5835 5834 5834 5834 5834 5835 5835 5836 5836 5836 5836 5836 5836 5837 5837 5837 5837 5837 5837 5837 5837 5837 5837 5837 5837 5836 5836 5836 5835 5835 5834 5834 5834 5833 5833 5832 5831 5831 5830 5830 5829 5829 5828
5829 5830 5830 5829 5829 5829 5830 5831 5830 5831 5831 5832 5832 5834 5832 5832 5832 5832 5832 5833 5833 5833 5833 5833 5833 5833 5832 5832 5832 5832 5831 5831 5831 5831 5830 5830 5829 5828 5828 5828 5827 5827 5826 5826
5824 5824 5824 5824 5824 5824 5824 5825 5825 5826 5826 5826 5826 5829 5827 5827 5827 5827 5827 5828 5828 5828 5829 5829 5829 5828 5828 5828 5828 5828 5828 5827 5827 5827 5827 5826 5826 5825 5825 5825 5824 5824 5823 5823
5818 5819 5819 5819 5820 5819 5818 5819 5819 5820 5820 5820 5821 5824 5821 5821 5821 5821 5822 5822 5823 5823 5823 5824 5824 5824 5824 5824 5824 5824 5823 5823 5823 5823 5823 5823 5822 5822 5822 5821 5821 5821 5821 5820
5812 5812 5814 5814 5813 5812 5812 5813 5813 5813 5813 5814 5814 5815 5815 5815 5815 5815 5816 5816 5817 5818 5818 5818 5819 5819 5819 5819 5819 5819 5819 5819 5819 5819 5819 5818 5818 5818 5818 5818 5818 5817 5817 5817
5806 5806 5806 5806 5806 5805 5806 5806 5806 5806 5807 5807 5808 5808 5809 5809 5809 5809 5810 5810 5811 5812 5812 5813 5813 5814 5814 5814 5814 5814 5814 5814 5814 5814 5814 5814 5814 5814 5814 5814 5814 5814 5813 5813
5799 5799 5799 5799 5799 5798 5799 5799 5799 5800 5800 5800 5800 5801 5802 5802 5803 5803 5803 5804 5805 5805 5806 5807 5807 5808 5808 5808 5808 5809 5809 5809 5809 5809 5809 5809 5809 5809 5809 5809 5809 5809 5809 5809
5792 5792 5792 5792 5792 5791 5792 5793 5793 5793 5793 5793 5794 5795 5795 5795 5796 5796 5797 5797 5798 5799 5800 5800 5801 5801 5802 5802 5802 5803 5803 5803 5803 5803 5803 5803 5804 5804 5804 5804 5804 5804 5804 5805
5785 5785 5785 5785 5786 5785 5788 5786 5786 5785 5786 5786 5786 5787 5788 5788 5789 5789 5790 5790 5791 5792 5793 5793 5794 5795 5795 5795 5796 5796 5796 5797 5797 5797 5797 5797 5798 5798 5799 5799 5799 5799 5799 5799
5778 5778 5778 5778 5777 5777 5779 5778 5778 5777 5778 5778 5779 5779 5780 5780 5781 5782 5782 5783 5784 5784 5785 5786 5787 5788 5788 5788 5789 5789 5789 5790 5790 5790 5791 5791 5791 5792 5792 5793 5793 5793 5794 5794
5771 5771 5771 5770 5770 5770 5772 5771 5770 5770 5770 5771 5771 5771 5772 5773 5774 5775 5775 5775 5776 5777 5778 5779 5779 5780 5781 5781 5781 5781 5782 5782 5783 5783 5784 5784 5785 5785 5786 5786 5787 5787 5788 5788
5764 5764 5764 5763 5762 5762 5764 5762 5763 5764 5764 5763 5763 5763 5764 5764 5766 5767 5767 5767 5768 5769 5770 5771 5772 5773 5773 5774 5774 5774 5774 5775 5775 5776 5776 5777 5778 5778 5779 5779 5780 5780 5781 5781
5757 5756 5756 5755 5755 5757 5755 5754 5755 5755 5754 5754 5754 5755 5755 5756 5757 5758 5758 5759 5760 5761 5762 5763 5764 5765 5765 5766 5766 5766 5767 5767 5767 5768 5768 5769 5770 5770 5771 5772 5772 5773 5773 5774
5750 5750 5749 5749 5750 5748 5747 5746 5746 5746 5747 5747 5747 5747 5748 5748 5749 5749 5750 5751 5752 5753 5753 5754 5755 5756 5757 5757 5758 5758 5758 5758 5759 5759 5760 5760 5761 5761 5762 5763 5764 5765 5765 5765
5743 5742 5741 5741 5741 5740 5739 5738 5738 5738 5738 5739 5739 5739 5739 5740 5740 5741 5742 5742 5743 5744 5745 5746 5747 5747 5748 5749 5749 5750 5750 5750 5750 5750 5751 5751 5752 5752 5753 5755 5756 5756 5757 5757
5736 5735 5733 5733 5733 5731 5731 5731 5730 5730 5730 5731 5731 5731 5731 5731 5732 5732 5733 5734 5735 5735 5736 5737 5738 5739 5740 5740 5741 5741 5741 5741 5742 5742 5742 5742 5743 5743 5744 5745 5746 5747 5748 5748
5728 5727 5726 5725 5724 5723 5723 5723 5722 5722 5722 5722 5722 5723 5723 5723 5723 5723 5724 5725 5725 5726 5727 5728 5729 5730 5731 5731 5732 5732 5733 5733 5733 5733 5733 5733 5734 5734 5735 5736 5737 5738 5739 5739